Hourly Weather Roundup
Issued by NWS Central Illinois

Home | Current Version | Previous Version | Text Only | Print | Product List | Glossary On
Versions: 1 2 3 4 5 6 7 8 9 10 11 12 13 14 15 16 17 18 19 20 21 22 23 24 25 26 27 28 29 30 31 32 33 34 35 36 37 38 39 40 41 42 43 44 45 46 47 48 49 50
000
NZUS43 KILX 072210
HWRILX

AREA WEATHER ROUNDUP
NATIONAL WEATHER SERVICE, LINCOLN IL
400 PM CST SUN FEB 07 2016


CITY           SKY/WX    TMP DP  RH WIND       PRES   REMARKS
BLOOMINGTON    PTSUNNY   46  34  63 SW20G25   29.82R
CHAMPAIGN      CLOUDY    47  35  63 W20       29.83R
DANVILLE       MOSUNNY   47  34  62 W16G24    29.79R
DECATUR        PTSUNNY   47  31  53 W14G24    29.85R
EFFINGHAM      CLOUDY    51  33  49 SW14G24   29.88R
FLORA          CLOUDY    55  30  39 SW13G18   29.87S
GALESBURG      SUNNY     44  29  55 W17       29.82S
JACKSONVILLE   MOSUNNY   51  32  48 W13       29.85F
LACON          MOSUNNY   46  28  50 W14       29.80R
LAWRENCEVILLE  CLOUDY    54  30  40 W20       29.87S
LITCHFIELD     CLOUDY    48  32  54 W13G21    29.88S
$$


CITY           SKY/WX    TMP DP  RH WIND       PRES   REMARKS
LINCOLN        PTSUNNY   47  33  59 W6G16     29.85R
MACOMB         SUNNY     46  29  51 NW15G24   29.86R
MATTOON        CLOUDY    49  31  49 W14G22    29.84R
MT CARMEL AP   CLOUDY    54  30  40 SW15      29.87S
OLNEY-NOBLE AP PTSUNNY   54  32  43 SW7       29.87S
PARIS          CLOUDY    49  35  58 SW13G18   29.83F
PEORIA         SUNNY     47  28  47 W14G23    29.82R
PONTIAC        PTSUNNY   46  36  67 W16       29.80R
RANTOUL        MOSUNNY   46  37  69 W13       29.82R
ROBINSON       CLOUDY    52  30  42 SW13      29.87S
SPRINGFIELD    MOSUNNY   48  34  58 W14       29.86R
TAYLORVILLE    CLOUDY    46  34  61 W13       29.87R
$$

...REGIONAL REPORTS...


CITY           SKY/WX    TMP DP  RH WIND       PRES   REMARKS
CHICAGO O`HARE CLOUDY    42  32  67 W15G23    29.72S WCI  34
KANKAKEE       PTSUNNY   43  33  65 SW13      29.79S
MOLINE         SUNNY     45  27  49 W15       29.80R
MOUNT STERLING MOSUNNY   47  29  49 W13G21    29.85S
MOUNT VERNON   CLOUDY    54  28  37 SW14      29.88F
PITTSFIELD     MOSUNNY   51  28  42 W13       29.87F
QUINCY         MOSUNNY   49  23  36 NW13G24   29.86S
ROCKFORD       MOSUNNY   43  28  55 W13G23    29.75R
$$


CITY           SKY/WX    TMP DP  RH WIND       PRES   REMARKS
BURLINGTON     SUNNY     47  27  45 NW15G23   29.83S
CEDAR RAPIDS   SUNNY     40  32  73 W21       29.79S WCI  30
DES MOINES     PTSUNNY   40  25  55 W21       29.85S WCI  30
KIRKSVILLE     CLOUDY    43  26  51 W9        29.91R
OTTUMWA        PTSUNNY   43  28  55 W15       29.86R
ST LOUIS       MOSUNNY   53  29  39 W13G22    29.90R
$$


CITY           SKY/WX    TMP DP  RH WIND       PRES   REMARKS
TERRE HAUTE    CLOUDY    50  31  48 SW16      29.83F
EVANSVILLE     SUNNY     56  27  32 SW20      29.90S
INDIANAPOLIS   PTSUNNY   52  26  36 SW24G31   29.81R
LAFAYETTE      CLOUDY    48  30  49 W16G23    29.79S
MADISON        PTSUNNY   40  27  59 SW7       29.66R
MILWAUKEE      MOSUNNY   44  30  57 W18G24    29.67R
$$





USA.gov is the U.S. government's official web portal to all federal, state and local government web resources and services.